Regional Weather Roundup
Issued by NWS

Home | Current Version | Previous Version | Text Only | Print | Product List | Glossary Off
Versions: 1 2 3 4 5 6 7 8 9 10 11 12 13 14 15 16 17 18 19 20 21 22 23 24 25 26 27 28 29 30 31 32 33 34 35 36 37 38 39 40 41 42 43 44 45 46 47 48 49 50

000
ASUS43 KLSX 060310
RWRMO

WEATHER SUMMARY FOR MISSOURI
NATIONAL WEATHER SERVICE SPRINGFIELD MO
900 PM CST FRI FEB 05 2016

NOTE: "FAIR" INDICATES FEW OR NO CLOUDS BELOW 12,000 FEET WITH NO
       SIGNIFICANT WEATHER AND/OR OBSTRUCTIONS TO VISIBILITY.
       CURRENT SKY AND/OR WEATHER CONDITIONS ARE NOT AVAILABLE FOR
       CHILLICOTHE AND FARMINGTON.

MOZ001>031-035>038-043-044-053-054-060400-
...NORTHERN AND WESTERN MISSOURI...

CITY           SKY/WX    TMP DP  RH WIND       PRES   REMARKS
KANSAS CTY INT CLOUDY    35  25  66 E3        30.27S
KANSAS C DTWN  CLOUDY    38  25  59 CALM      30.28S
LEE`S SUMMIT   CLOUDY    37  24  59 SE6       30.28S
ST JOSEPH      CLOUDY    35  23  61 CALM      30.28S
CHILLICOTHE      N/A     33  23  66 CALM      30.31S
KIRKSVILLE     CLOUDY    31  22  69 S5        30.30F WCI  26

$$
MOZ066>068-077>081-088>096-101>105-060400-
...SOUTHWEST MISSOURI...

CITY           SKY/WX    TMP DP  RH WIND       PRES   REMARKS
SPRINGFIELD    CLEAR     32  19  58 S5        30.29S WCI  27
JOPLIN         PTCLDY    41  20  43 S8        30.29F

$$
MOZ032>034-039>042-045>050-055>058-069>072-060400-
...CENTRAL MISSOURI...

CITY           SKY/WX    TMP DP  RH WIND       PRES   REMARKS
COLUMBIA       CLOUDY    33  18  53 E6        30.30F WCI  28
JEFFERSON CITY CLOUDY    31  20  63 CALM      30.33S
ROLLA          CLOUDY    35  19  52 SE8       30.29S WCI  29
SEDALIA        CLOUDY    36  21  54 SE5       30.30S
WHITEMAN AFB   MOCLDY    35  24  62 E3        30.28R
WARRENSBURG    CLOUDY    36  23  60 E3        30.29S
OSAGE BEACH    PTCLDY    36  18  48 CALM      30.30S

$$
MOZ051-052-059>065-060400-
...EAST CENTRAL MISSOURI...

CITY           SKY/WX    TMP DP  RH WIND       PRES   REMARKS
ST LOUIS INTL  PTCLDY    32  17  54 E5        30.35S WCI  27
SPIRIT OF STL  CLEAR     26  21  81 CALM      30.34S
ST CHARLES     PTCLDY    28  25  88 E6        30.35S WCI  22

$$
MOZ072>076-082>087-097>100-106>115-060400-
...SOUTH CENTRAL AND SOUTHEAST MISSOURI...

CITY           SKY/WX    TMP DP  RH WIND       PRES   REMARKS
CAPE GIRARDEAU CLEAR     30  25  81 E3        30.35R
FARMINGTON     CLEAR     31  23  72 CALM      30.34S
POPLAR BLUFF   CLEAR     39  24  55 S5        30.34S
WEST PLAINS    PTCLDY    34  16  47 CALM      30.31S

$$



USA.gov is the U.S. government's official web portal to all federal, state and local government web resources and services.